DW8195 Weather Reports


time (UTC)temp
C
wind
direction
speed
KPH
gust
KPH
rain 1hr
cm
rain 24hr
cm
rain mn
cm
humidity
%
barometer
mb
20260504233031 14 203 6.4 11.3 0.00 0.00 0.00 59 1010.1
20260504231531 15 203 3.2 9.7 0.00 0.00 0.00 59 1010.0
20260504230030 14 72 1.6 11.3 0.00 0.00 0.00 61 1009.9
20260504224527 13 203 3.2 14.5 0.00 0.00 0.00 61 1009.9
20260504223027 14 137 8.0 19.3 0.00 0.00 0.00 61 1009.9
20260504221527 13 131 6.4 20.9 0.00 0.00 0.00 61 1009.9
20260504220026 13 203 6.4 22.5 0.00 0.00 0.00 61 1010.0
20260504214559 14 203 6.4 20.9 0.00 0.00 0.00 60 1010.1
20260504213055 13 203 8.0 20.9 0.00 0.00 0.00 61 1010.3
20260504211552 13 350 11.3 22.5 0.00 0.00 0.00 61 1010.2
20260504210053 14 203 9.7 20.9 0.00 0.00 0.00 59 1010.3
20260504204549 14 122 9.7 24.1 0.00 0.00 0.00 59 1010.1
20260504203059 13 203 11.3 22.5 0.00 0.00 0.00 59 1010.0
20260504201515 14 203 9.7 22.5 0.00 0.00 0.00 58 1010.2
20260504200013 14 203 11.3 22.5 0.00 0.00 0.00 58 1010.3
20260504194507 14 134 8.0 24.1 0.00 0.00 0.00 58 1010.4
20260504193008 15 203 9.7 27.4 0.00 0.00 0.00 57 1010.4
20260504191504 15 131 4.8 17.7 0.00 0.00 0.00 55 1010.9
20260504190002 16 21 3.2 17.7 0.00 0.00 0.00 55 1011.1
20260504184558 16 126 9.7 19.3 0.00 0.00 0.00 53 1011.1
20260504183102 18 203 3.2 17.7 0.00 0.00 0.00 46 1011.3
20260504181557 19 203 4.8 16.1 0.00 0.00 0.00 39 1011.5
20260504180051 21 203 3.2 24.1 0.00 0.00 0.00 26 1011.5
20260504174519 21 203 4.8 24.1 0.00 0.00 0.00 26 1011.7
20260504173019 20 203 9.7 24.1 0.00 0.00 0.00 25 1011.8
20260504171513 20 203 8.0 29.0 0.00 0.00 0.00 25 1012.0
20260504160108 19 203 9.7 24.1 0.00 0.00 0.00 25 1013.0
20260504081540 10 203 8.0 14.5 0.00 0.00 0.00 46 1014.4
20260504044552 11 203 6.4 16.1 0.00 0.00 0.00 38 1013.6
20260504043051 11 203 6.4 11.3 0.00 0.00 0.00 38 1013.5
20260504041549 11 203 4.8 11.3 0.00 0.00 0.00 38 1013.4
20260504040051 11 203 4.8 11.3 0.00 0.00 0.00 37 1013.4
20260504034544 11 203 4.8 11.3 0.00 0.00 0.00 36 1013.2
20260504033041 11 203 8.0 12.9 0.00 0.00 0.00 34 1013.2
20260504031544 12 203 6.4 16.1 0.00 0.00 0.00 34 1013.1
20260504030040 12 203 4.8 11.3 0.00 0.00 0.00 33 1013.0
20260504024551 12 203 6.4 11.3 0.00 0.00 0.00 31 1013.1
20260504023038 12 203 4.8 12.9 0.00 0.00 0.00 32 1013.1
20260504021537 12 203 4.8 12.9 0.00 0.00 0.00 31 1013.1
20260504020042 12 203 4.8 9.7 0.00 0.00 0.00 31 1013.1
20260504014536 12 203 4.8 9.7 0.00 0.00 0.00 30 1013.0
20260504013006 12 203 4.8 8.0 0.00 0.00 0.00 28 1012.9
20260504011502 13 203 4.8 8.0 0.00 0.00 0.00 27 1012.7
20260504010031 13 203 6.4 11.3 0.00 0.00 0.00 26 1012.5
20260504004531 13 203 3.2 8.0 0.00 0.00 0.00 27 1012.3
20260504003038 13 203 3.2 6.4 0.00 0.00 0.00 27 1012.1
20260504001530 14 203 1.6 9.7 0.00 0.00 0.00 28 1011.9
20260504000051 14 203 3.2 8.0 0.00 0.00 0.00 26 1011.7
20260503234528 15 203 3.2 12.9 0.00 0.00 0.00 25 1011.6